When you browse on this site, cookies collect data to enhance your experience and personalize the content and advertising you see.
Visit our Privacy Policy to learn more. By continuing to use the site, you agree to this use of cookies and data.
  • In Deutschland
  • Länderverzeichnis
  • Für 7 Tage
  • Wassertemperatur
  • Wetterkarte
  • Widgets
  • user-avatar
    Anmelden

    Stündliche Wetter Eiterfeld

    Heute, 28 Januar, Dienstag

    Zeit Temperatur Niederschläge Wind Luftdruck Luftfeuchtigkeit
    00:00 +2°C° 0.1 mm 5 m/S 720 mmHg 93%
    01:00 +2°C° 0.1 mm 5 m/S 720 mmHg 92%
    02:00 +3°C° 0.5 mm 5 m/S 719 mmHg 92%
    03:00 +3°C° 0.5 mm 6 m/S 718 mmHg 92%
    04:00 +3°C° 0.5 mm 6 m/S 718 mmHg 91%
    05:00 +3°C° 0.4 mm 6 m/S 717 mmHg 90%
    06:00 +3°C° 0.4 mm 6 m/S 717 mmHg 89%
    07:00 +2°C° 0.4 mm 5 m/S 717 mmHg 88%
    08:00 +2°C° 0.3 mm 6 m/S 716 mmHg 87%
    09:00 +2°C° 0.3 mm 7 m/S 715 mmHg 86%
    10:00 +2°C° 0.3 mm 8 m/S 715 mmHg 86%
    11:00 +1°C° 0.4 mm 8 m/S 715 mmHg 86%
    12:00 +1°C° 0.4 mm 9 m/S 715 mmHg 85%
    13:00 0°C° 0.4 mm 9 m/S 715 mmHg 85%
    14:00 0°C° 0.2 mm 8 m/S 716 mmHg 79%
    15:00 0°C° 0.2 mm 8 m/S 716 mmHg 74%
    16:00 0°C° 0.2 mm 7 m/S 717 mmHg 68%
    17:00 0°C° 0.1 mm 7 m/S 718 mmHg 70%
    18:00 -1°C° 0.1 mm 7 m/S 718 mmHg 71%
    19:00 -2°C° 0.1 mm 6 m/S 719 mmHg 73%
    20:00 -2°C° 0 mm 6 m/S 719 mmHg 75%
    21:00 -2°C° 0 mm 6 m/S 719 mmHg 78%
    22:00 -3°C° 0 mm 6 m/S 719 mmHg 80%
    23:00 -2°C° 0 mm 6 m/S 720 mmHg 82%

    Morgen, 29 Januar, Mittwoch

    Zeit Temperatur Niederschläge Wind Luftdruck Luftfeuchtigkeit
    00:00 -2°C° 0 mm 6 m/S 720 mmHg 83%
    01:00 -2°C° 0 mm 6 m/S 720 mmHg 84%
    02:00 -2°C° 0 mm 6 m/S 721 mmHg 84%
    03:00 -2°C° 0 mm 6 m/S 721 mmHg 84%
    04:00 -2°C° 0 mm 6 m/S 721 mmHg 84%
    05:00 -2°C° 0 mm 6 m/S 722 mmHg 86%
    06:00 -2°C° 0 mm 6 m/S 722 mmHg 87%
    07:00 -2°C° 0 mm 6 m/S 723 mmHg 88%
    08:00 -2°C° 0 mm 6 m/S 723 mmHg 88%
    09:00 -2°C° 0 mm 6 m/S 724 mmHg 88%
    10:00 -2°C° 0 mm 6 m/S 724 mmHg 88%
    11:00 -2°C° 0.1 mm 6 m/S 725 mmHg 86%
    12:00 -1°C° 0.1 mm 6 m/S 725 mmHg 84%
    13:00 -1°C° 0.1 mm 6 m/S 726 mmHg 82%
    14:00 -1°C° 0.4 mm 6 m/S 726 mmHg 86%
    15:00 -2°C° 0.4 mm 6 m/S 726 mmHg 89%
    16:00 -2°C° 0.4 mm 6 m/S 727 mmHg 92%
    17:00 -1°C° 0 mm 5 m/S 727 mmHg 92%
    18:00 -2°C° 0 mm 4 m/S 728 mmHg 91%
    19:00 -2°C° 0 mm 4 m/S 729 mmHg 90%
    20:00 -2°C° 0 mm 4 m/S 729 mmHg 91%
    21:00 -3°C° 0 mm 4 m/S 730 mmHg 92%
    22:00 -3°C° 0 mm 4 m/S 730 mmHg 93%
    23:00 -2°C° 0 mm 3 m/S 731 mmHg 92%

    übermorgen, 30 Januar, Donnerstag

    Zeit Temperatur Niederschläge Wind Luftdruck Luftfeuchtigkeit
    00:00 -2°C° 0 mm 3 m/S 731 mmHg 92%
    01:00 -2°C° 0 mm 3 m/S 731 mmHg 91%
    02:00 -2°C° 0 mm 3 m/S 731 mmHg 92%
    03:00 -2°C° 0 mm 3 m/S 731 mmHg 93%
    04:00 -2°C° 0 mm 3 m/S 731 mmHg 94%
    05:00 -2°C° 0 mm 3 m/S 731 mmHg 94%
    06:00 -2°C° 0 mm 3 m/S 731 mmHg 95%
    07:00 -1°C° 0 mm 3 m/S 731 mmHg 95%
    08:00 -1°C° 0 mm 4 m/S 731 mmHg 93%
    09:00 -1°C° 0 mm 4 m/S 731 mmHg 91%
    10:00 0°C° 0 mm 5 m/S 731 mmHg 88%
    11:00 +1°C° 0 mm 5 m/S 730 mmHg 85%
    12:00 +2°C° 0 mm 5 m/S 730 mmHg 81%
    13:00 +4°C° 0 mm 4 m/S 730 mmHg 77%
    14:00 +3°C° 0 mm 4 m/S 729 mmHg 80%
    15:00 +3°C° 0 mm 4 m/S 728 mmHg 82%
    16:00 +3°C° 0 mm 4 m/S 728 mmHg 84%
    17:00 +2°C° 0 mm 3 m/S 727 mmHg 86%
    18:00 +1°C° 0 mm 3 m/S 727 mmHg 87%
    19:00 +1°C° 0 mm 3 m/S 727 mmHg 88%
    20:00 +1°C° 0 mm 3 m/S 726 mmHg 86%
    21:00 0°C° 0 mm 4 m/S 726 mmHg 84%
    22:00 0°C° 0 mm 4 m/S 726 mmHg 82%
    23:00 +1°C° 0.1 mm 5 m/S 725 mmHg 86%

    31 Januar, Freitag

    Zeit Temperatur Niederschläge Wind Luftdruck Luftfeuchtigkeit
    00:00 +2°C° 0.1 mm 5 m/S 725 mmHg 90%
    01:00 +2°C° 0.1 mm 5 m/S 725 mmHg 94%
    02:00 +3°C° 0 mm 5 m/S 725 mmHg 94%
    03:00 +5°C° 0 mm 5 m/S 725 mmHg 95%
    04:00 +6°C° 0 mm 5 m/S 725 mmHg 95%
    05:00 +6°C° 0 mm 5 m/S 725 mmHg 95%
    06:00 +7°C° 0 mm 5 m/S 725 mmHg 94%
    07:00 +7°C° 0 mm 5 m/S 725 mmHg 94%
    08:00 +7°C° 0 mm 5 m/S 726 mmHg 93%
    09:00 +7°C° 0 mm 5 m/S 726 mmHg 93%
    10:00 +8°C° 0 mm 5 m/S 727 mmHg 92%
    11:00 +8°C° 0 mm 5 m/S 727 mmHg 89%
    12:00 +9°C° 0 mm 5 m/S 727 mmHg 86%
    13:00 +9°C° 0 mm 6 m/S 727 mmHg 83%
    14:00 +9°C° 0 mm 5 m/S 727 mmHg 83%
    15:00 +9°C° 0 mm 5 m/S 727 mmHg 83%
    16:00 +10°C° 0 mm 4 m/S 727 mmHg 83%
    17:00 +8°C° 0 mm 5 m/S 727 mmHg 84%
    18:00 +8°C° 0 mm 5 m/S 727 mmHg 86%
    19:00 +7°C° 0 mm 5 m/S 727 mmHg 88%
    20:00 +7°C° 0 mm 5 m/S 727 mmHg 89%
    21:00 +7°C° 0 mm 5 m/S 727 mmHg 91%
    22:00 +7°C° 0 mm 5 m/S 727 mmHg 92%
    23:00 +7°C° 0.1 mm 5 m/S 726 mmHg 92%

    1 Februar, Samstag

    Zeit Temperatur Niederschläge Wind Luftdruck Luftfeuchtigkeit
    00:00 +8°C° 0.1 mm 5 m/S 726 mmHg 93%
    01:00 +8°C° 0.1 mm 5 m/S 726 mmHg 93%
    02:00 +8°C° 0.8 mm 6 m/S 725 mmHg 93%
    03:00 +8°C° 0.8 mm 6 m/S 725 mmHg 93%
    04:00 +9°C° 0.8 mm 6 m/S 725 mmHg 93%
    05:00 +9°C° 1.1 mm 6 m/S 725 mmHg 93%
    06:00 +9°C° 1.1 mm 5 m/S 725 mmHg 94%
    07:00 +9°C° 1.1 mm 5 m/S 725 mmHg 94%
    08:00 +9°C° 0.2 mm 5 m/S 725 mmHg 92%
    09:00 +9°C° 0.2 mm 5 m/S 725 mmHg 91%
    10:00 +9°C° 0.2 mm 5 m/S 726 mmHg 89%
    11:00 +10°C° 0.2 mm 5 m/S 726 mmHg 86%
    12:00 +10°C° 0.2 mm 6 m/S 726 mmHg 83%
    13:00 +10°C° 0.2 mm 6 m/S 726 mmHg 80%
    14:00 +10°C° 0.2 mm 6 m/S 726 mmHg 80%
    15:00 +9°C° 0.2 mm 7 m/S 726 mmHg 80%
    16:00 +9°C° 0.2 mm 7 m/S 726 mmHg 79%
    17:00 +8°C° 0.3 mm 6 m/S 727 mmHg 80%
    18:00 +7°C° 0.3 mm 5 m/S 728 mmHg 81%
    19:00 +7°C° 0.3 mm 4 m/S 729 mmHg 83%
    20:00 +6°C° 0.1 mm 4 m/S 729 mmHg 85%
    21:00 +6°C° 0.1 mm 4 m/S 729 mmHg 88%
    22:00 +6°C° 0.1 mm 5 m/S 729 mmHg 90%
    23:00 +6°C° 0.1 mm 5 m/S 729 mmHg 90%

    2 Februar, Sonntag

    Zeit Temperatur Niederschläge Wind Luftdruck Luftfeuchtigkeit
    00:00 +6°C° 0.1 mm 5 m/S 729 mmHg 90%
    01:00 +5°C° 0.1 mm 6 m/S 729 mmHg 90%
    02:00 +7°C° 0 mm 6 m/S 729 mmHg 89%
    03:00 +7°C° 0 mm 6 m/S 728 mmHg 89%
    04:00 +7°C° 0 mm 6 m/S 727 mmHg 88%
    05:00 +6°C° 0 mm 7 m/S 727 mmHg 88%
    06:00 +6°C° 0 mm 7 m/S 726 mmHg 87%
    07:00 +7°C° 0 mm 8 m/S 725 mmHg 87%
    08:00 +7°C° 0.3 mm 8 m/S 725 mmHg 87%
    09:00 +8°C° 0.3 mm 9 m/S 724 mmHg 87%
    10:00 +10°C° 0.3 mm 9 m/S 724 mmHg 87%
    11:00 +10°C° 0.6 mm 9 m/S 724 mmHg 87%
    12:00 +9°C° 0.6 mm 10 m/S 723 mmHg 87%
    13:00 +11°C° 0.6 mm 10 m/S 723 mmHg 87%
    14:00 +11°C° 0.3 mm 9 m/S 723 mmHg 82%
    15:00 +11°C° 0.3 mm 8 m/S 723 mmHg 77%
    16:00 +11°C° 0.3 mm 8 m/S 724 mmHg 73%
    17:00 +10°C° 0.1 mm 7 m/S 724 mmHg 72%
    18:00 +9°C° 0.1 mm 7 m/S 724 mmHg 72%
    19:00 +7°C° 0.1 mm 6 m/S 725 mmHg 71%
    20:00 +6°C° 0 mm 7 m/S 725 mmHg 73%
    21:00 +6°C° 0 mm 7 m/S 725 mmHg 74%
    22:00 +6°C° 0 mm 7 m/S 726 mmHg 76%
    23:00 +6°C° 0 mm 7 m/S 726 mmHg 76%
    Mehr zeigen